owner,sensor,date,latitude,longitude,relative_humidity,qcFlag 
DISL,ioos:station:DISL:CATA:1,2017-09-01T00:00:00Z,30.3085,-88.1395,72.22,1111122 
DISL,ioos:station:DISL:CATA:1,2017-09-01T00:30:00Z,30.3085,-88.1395,71.29,1111122 
DISL,ioos:station:DISL:CATA:1,2017-09-01T01:00:00Z,30.3085,-88.1395,75.27,1111122 
DISL,ioos:station:DISL:CATA:1,2017-09-01T01:30:00Z,30.3085,-88.1395,75.09,1111122 
DISL,ioos:station:DISL:CATA:1,2017-09-01T02:00:00Z,30.3085,-88.1395,72.01,1111122 
DISL,ioos:station:DISL:CATA:1,2017-09-01T02:30:00Z,30.3085,-88.1395,74.31,1111122 
DISL,ioos:station:DISL:CATA:1,2017-09-01T03:00:00Z,30.3085,-88.1395,74.2,1111122 
DISL,ioos:station:DISL:CATA:1,2017-09-01T03:30:00Z,30.3085,-88.1395,71.05,1111122 
DISL,ioos:station:DISL:CATA:1,2017-09-01T04:00:00Z,30.3085,-88.1395,71.43,1111122 
DISL,ioos:station:DISL:CATA:1,2017-09-01T04:30:00Z,30.3085,-88.1395,72.15,1111122 
DISL,ioos:station:DISL:CATA:1,2017-09-01T05:00:00Z,30.3085,-88.1395,71.53,1111122 
DISL,ioos:station:DISL:CATA:1,2017-09-01T05:30:00Z,30.3085,-88.1395,71.74,1111122 
DISL,ioos:station:DISL:CATA:1,2017-09-01T06:30:00Z,30.3085,-88.1395,74.13,1111122 
DISL,ioos:station:DISL:CATA:1,2017-09-01T07:00:00Z,30.3085,-88.1395,76.4,1111122 
DISL,ioos:station:DISL:CATA:1,2017-09-01T07:30:00Z,30.3085,-88.1395,78.87,1111122 
DISL,ioos:station:DISL:CATA:1,2017-09-01T08:00:00Z,30.3085,-88.1395,77.98,1111122 
DISL,ioos:station:DISL:CATA:1,2017-09-01T08:30:00Z,30.3085,-88.1395,80.3,1111122 
DISL,ioos:station:DISL:CATA:1,2017-09-01T09:00:00Z,30.3085,-88.1395,80.3,1111122 
DISL,ioos:station:DISL:CATA:1,2017-09-01T09:30:00Z,30.3085,-88.1395,78.94,1111122 
DISL,ioos:station:DISL:CATA:1,2017-09-01T10:00:00Z,30.3085,-88.1395,77.23,1111122 
DISL,ioos:station:DISL:CATA:1,2017-09-01T10:30:00Z,30.3085,-88.1395,80.5,1111122 
DISL,ioos:station:DISL:CATA:1,2017-09-01T11:00:00Z,30.3085,-88.1395,82.2,1111122 
DISL,ioos:station:DISL:CATA:1,2017-09-01T11:30:00Z,30.3085,-88.1395,81.1,1111122 
DISL,ioos:station:DISL:CATA:1,2017-09-01T12:00:00Z,30.3085,-88.1395,82.1,1111122 
DISL,ioos:station:DISL:CATA:1,2017-09-01T12:30:00Z,30.3085,-88.1395,82.7,1111122 
DISL,ioos:station:DISL:CATA:1,2017-09-01T13:00:00Z,30.3085,-88.1395,83.1,1111122 
DISL,ioos:station:DISL:CATA:1,2017-09-01T13:30:00Z,30.3085,-88.1395,82.0,1111122 
DISL,ioos:station:DISL:CATA:1,2017-09-01T14:00:00Z,30.3085,-88.1395,76.36,1111122 
DISL,ioos:station:DISL:CATA:1,2017-09-01T14:30:00Z,30.3085,-88.1395,78.83,1111122 
DISL,ioos:station:DISL:CATA:1,2017-09-01T15:00:00Z,30.3085,-88.1395,77.6,1111122 
DISL,ioos:station:DISL:CATA:1,2017-09-01T15:30:00Z,30.3085,-88.1395,76.33,1111122 
DISL,ioos:station:DISL:CATA:1,2017-09-01T16:00:00Z,30.3085,-88.1395,75.09,1111122 
DISL,ioos:station:DISL:CATA:1,2017-09-01T16:30:00Z,30.3085,-88.1395,73.83,1111122 
DISL,ioos:station:DISL:CATA:1,2017-09-01T17:00:00Z,30.3085,-88.1395,76.43,1111122 
DISL,ioos:station:DISL:CATA:1,2017-09-01T17:30:00Z,30.3085,-88.1395,77.42,1111122 
DISL,ioos:station:DISL:CATA:1,2017-09-01T18:00:00Z,30.3085,-88.1395,75.71,1111122 
DISL,ioos:station:DISL:CATA:1,2017-09-01T18:30:00Z,30.3085,-88.1395,77.22,1111122 
DISL,ioos:station:DISL:CATA:1,2017-09-01T19:00:00Z,30.3085,-88.1395,76.12,1111122 
DISL,ioos:station:DISL:CATA:1,2017-09-01T19:30:00Z,30.3085,-88.1395,74.33,1111122 
DISL,ioos:station:DISL:CATA:1,2017-09-01T20:00:00Z,30.3085,-88.1395,76.08,1111122 
DISL,ioos:station:DISL:CATA:1,2017-09-01T20:30:00Z,30.3085,-88.1395,74.81,1111122 
DISL,ioos:station:DISL:CATA:1,2017-09-01T21:00:00Z,30.3085,-88.1395,72.92,1111122 
DISL,ioos:station:DISL:CATA:1,2017-09-01T21:30:00Z,30.3085,-88.1395,71.7,1111122 
DISL,ioos:station:DISL:CATA:1,2017-09-01T22:00:00Z,30.3085,-88.1395,72.63,1111122 
DISL,ioos:station:DISL:CATA:1,2017-09-01T22:30:00Z,30.3085,-88.1395,70.43,1111122 
DISL,ioos:station:DISL:CATA:1,2017-09-01T23:00:00Z,30.3085,-88.1395,68.52,1111122 
DISL,ioos:station:DISL:CATA:1,2017-09-01T23:30:00Z,30.3085,-88.1395,72.29,1111122 
DISL,ioos:station:DISL:CATA:1,2017-09-02T00:00:00Z,30.3085,-88.1395,74.0,1111122 
DISL,ioos:station:DISL:CATA:1,2017-09-02T00:30:00Z,30.3085,-88.1395,76.02,1111122 
DISL,ioos:station:DISL:CATA:1,2017-09-02T01:00:00Z,30.3085,-88.1395,75.16,1111122 
DISL,ioos:station:DISL:CATA:1,2017-09-02T01:30:00Z,30.3085,-88.1395,74.41,1111122 
DISL,ioos:station:DISL:CATA:1,2017-09-02T02:00:00Z,30.3085,-88.1395,75.03,1111122 
DISL,ioos:station:DISL:CATA:1,2017-09-02T02:30:00Z,30.3085,-88.1395,74.03,1111122 
DISL,ioos:station:DISL:CATA:1,2017-09-02T03:00:00Z,30.3085,-88.1395,71.81,1111122 
DISL,ioos:station:DISL:CATA:1,2017-09-02T03:30:00Z,30.3085,-88.1395,78.04,1111122 
DISL,ioos:station:DISL:CATA:1,2017-09-02T04:00:00Z,30.3085,-88.1395,80.8,1111122 
DISL,ioos:station:DISL:CATA:1,2017-09-02T04:30:00Z,30.3085,-88.1395,83.7,1111122 
DISL,ioos:station:DISL:CATA:1,2017-09-02T05:00:00Z,30.3085,-88.1395,74.25,1111122 
DISL,ioos:station:DISL:CATA:1,2017-09-02T05:30:00Z,30.3085,-88.1395,74.57,1111122 
DISL,ioos:station:DISL:CATA:1,2017-09-02T06:30:00Z,30.3085,-88.1395,68.95,1111122 
DISL,ioos:station:DISL:CATA:1,2017-09-02T07:00:00Z,30.3085,-88.1395,78.14,1111122 
DISL,ioos:station:DISL:CATA:1,2017-09-02T07:30:00Z,30.3085,-88.1395,69.43,1111122 
DISL,ioos:station:DISL:CATA:1,2017-09-02T08:00:00Z,30.3085,-88.1395,77.41,1111122 
DISL,ioos:station:DISL:CATA:1,2017-09-02T08:30:00Z,30.3085,-88.1395,80.4,1111122 
DISL,ioos:station:DISL:CATA:1,2017-09-02T09:00:00Z,30.3085,-88.1395,85.3,1111122 
DISL,ioos:station:DISL:CATA:1,2017-09-02T09:30:00Z,30.3085,-88.1395,85.6,1111122 
DISL,ioos:station:DISL:CATA:1,2017-09-02T10:00:00Z,30.3085,-88.1395,87.6,1111122 
DISL,ioos:station:DISL:CATA:1,2017-09-02T10:30:00Z,30.3085,-88.1395,81.2,1111122 
DISL,ioos:station:DISL:CATA:1,2017-09-02T11:00:00Z,30.3085,-88.1395,86.4,1111122 
DISL,ioos:station:DISL:CATA:1,2017-09-02T11:30:00Z,30.3085,-88.1395,85.5,1111122 
DISL,ioos:station:DISL:CATA:1,2017-09-02T12:00:00Z,30.3085,-88.1395,86.9,1111122 
DISL,ioos:station:DISL:CATA:1,2017-09-02T12:30:00Z,30.3085,-88.1395,87.1,1111122 
DISL,ioos:station:DISL:CATA:1,2017-09-02T13:00:00Z,30.3085,-88.1395,88.3,1111122 
DISL,ioos:station:DISL:CATA:1,2017-09-02T13:30:00Z,30.3085,-88.1395,88.5,1111122 
DISL,ioos:station:DISL:CATA:1,2017-09-02T14:00:00Z,30.3085,-88.1395,87.6,1111122 
DISL,ioos:station:DISL:CATA:1,2017-09-02T14:30:00Z,30.3085,-88.1395,90.0,1111122 
DISL,ioos:station:DISL:CATA:1,2017-09-02T15:00:00Z,30.3085,-88.1395,90.2,1111122 
DISL,ioos:station:DISL:CATA:1,2017-09-02T15:30:00Z,30.3085,-88.1395,84.8,1111122 
DISL,ioos:station:DISL:CATA:1,2017-09-02T16:00:00Z,30.3085,-88.1395,84.4,1111122 
DISL,ioos:station:DISL:CATA:1,2017-09-02T16:30:00Z,30.3085,-88.1395,79.2,1111122 
DISL,ioos:station:DISL:CATA:1,2017-09-02T17:00:00Z,30.3085,-88.1395,79.66,1111122 
DISL,ioos:station:DISL:CATA:1,2017-09-02T17:30:00Z,30.3085,-88.1395,76.51,1111122 
DISL,ioos:station:DISL:CATA:1,2017-09-02T18:00:00Z,30.3085,-88.1395,74.62,1111122 
DISL,ioos:station:DISL:CATA:1,2017-09-02T18:30:00Z,30.3085,-88.1395,71.92,1111122 
DISL,ioos:station:DISL:CATA:1,2017-09-02T19:00:00Z,30.3085,-88.1395,71.58,1111122 
DISL,ioos:station:DISL:CATA:1,2017-09-02T19:30:00Z,30.3085,-88.1395,74.11,1111122 
DISL,ioos:station:DISL:CATA:1,2017-09-02T20:00:00Z,30.3085,-88.1395,72.16,1111122 
DISL,ioos:station:DISL:CATA:1,2017-09-02T20:30:00Z,30.3085,-88.1395,74.66,1111122 
DISL,ioos:station:DISL:CATA:1,2017-09-02T21:00:00Z,30.3085,-88.1395,72.48,1111122 
DISL,ioos:station:DISL:CATA:1,2017-09-02T21:30:00Z,30.3085,-88.1395,74.13,1111122 
DISL,ioos:station:DISL:CATA:1,2017-09-02T22:00:00Z,30.3085,-88.1395,73.83,1111122 
DISL,ioos:station:DISL:CATA:1,2017-09-02T22:30:00Z,30.3085,-88.1395,74.55,1111122 
DISL,ioos:station:DISL:CATA:1,2017-09-02T23:00:00Z,30.3085,-88.1395,72.63,1111122 
DISL,ioos:station:DISL:CATA:1,2017-09-02T23:30:00Z,30.3085,-88.1395,71.22,1111122 
DISL,ioos:station:DISL:CATA:1,2017-09-03T00:00:00Z,30.3085,-88.1395,73.72,1111122 
DISL,ioos:station:DISL:CATA:1,2017-09-03T00:30:00Z,30.3085,-88.1395,70.13,1111122 
DISL,ioos:station:DISL:CATA:1,2017-09-03T01:00:00Z,30.3085,-88.1395,70.78,1111122 
DISL,ioos:station:DISL:CATA:1,2017-09-03T01:30:00Z,30.3085,-88.1395,71.87,1111122 
DISL,ioos:station:DISL:CATA:1,2017-09-03T02:00:00Z,30.3085,-88.1395,76.05,1111122 
DISL,ioos:station:DISL:CATA:1,2017-09-03T02:30:00Z,30.3085,-88.1395,71.16,1111122 
DISL,ioos:station:DISL:CATA:1,2017-09-03T03:00:00Z,30.3085,-88.1395,73.45,1111122 
DISL,ioos:station:DISL:CATA:1,2017-09-03T03:30:00Z,30.3085,-88.1395,75.37,1111122 
DISL,ioos:station:DISL:CATA:1,2017-09-03T04:00:00Z,30.3085,-88.1395,79.69,1111122 
DISL,ioos:station:DISL:CATA:1,2017-09-03T04:30:00Z,30.3085,-88.1395,81.5,1111122 
DISL,ioos:station:DISL:CATA:1,2017-09-03T05:00:00Z,30.3085,-88.1395,75.35,1111122 
DISL,ioos:station:DISL:CATA:1,2017-09-03T05:30:00Z,30.3085,-88.1395,70.96,1111122 
DISL,ioos:station:DISL:CATA:1,2017-09-03T06:30:00Z,30.3085,-88.1395,77.3,1111122 
DISL,ioos:station:DISL:CATA:1,2017-09-03T07:00:00Z,30.3085,-88.1395,73.22,1111122 
DISL,ioos:station:DISL:CATA:1,2017-09-03T07:30:00Z,30.3085,-88.1395,81.0,1111122 
DISL,ioos:station:DISL:CATA:1,2017-09-03T08:00:00Z,30.3085,-88.1395,83.5,1111122 
DISL,ioos:station:DISL:CATA:1,2017-09-03T08:30:00Z,30.3085,-88.1395,86.3,1111122 
DISL,ioos:station:DISL:CATA:1,2017-09-03T09:00:00Z,30.3085,-88.1395,84.9,1111122 
DISL,ioos:station:DISL:CATA:1,2017-09-03T09:30:00Z,30.3085,-88.1395,87.2,1111122 
DISL,ioos:station:DISL:CATA:1,2017-09-03T10:00:00Z,30.3085,-88.1395,88.1,1111122 
DISL,ioos:station:DISL:CATA:1,2017-09-03T10:30:00Z,30.3085,-88.1395,80.1,1111122 
DISL,ioos:station:DISL:CATA:1,2017-09-03T11:00:00Z,30.3085,-88.1395,76.42,1111122 
DISL,ioos:station:DISL:CATA:1,2017-09-03T11:30:00Z,30.3085,-88.1395,76.82,1111122 
DISL,ioos:station:DISL:CATA:1,2017-09-03T12:00:00Z,30.3085,-88.1395,79.91,1111122 
DISL,ioos:station:DISL:CATA:1,2017-09-03T12:30:00Z,30.3085,-88.1395,76.96,1111122 
DISL,ioos:station:DISL:CATA:1,2017-09-03T13:00:00Z,30.3085,-88.1395,76.03,1111122 
DISL,ioos:station:DISL:CATA:1,2017-09-03T13:30:00Z,30.3085,-88.1395,76.24,1111122 
DISL,ioos:station:DISL:CATA:1,2017-09-03T14:00:00Z,30.3085,-88.1395,76.33,1111122 
DISL,ioos:station:DISL:CATA:1,2017-09-03T14:30:00Z,30.3085,-88.1395,77.29,1111122 
DISL,ioos:station:DISL:CATA:1,2017-09-03T15:00:00Z,30.3085,-88.1395,80.3,1111122 
DISL,ioos:station:DISL:CATA:1,2017-09-03T15:30:00Z,30.3085,-88.1395,80.4,1111122 
DISL,ioos:station:DISL:CATA:1,2017-09-03T16:00:00Z,30.3085,-88.1395,75.81,1111122 
DISL,ioos:station:DISL:CATA:1,2017-09-03T16:30:00Z,30.3085,-88.1395,67.41,1111122 
DISL,ioos:station:DISL:CATA:1,2017-09-03T17:00:00Z,30.3085,-88.1395,65.24,1111122 
DISL,ioos:station:DISL:CATA:1,2017-09-03T17:30:00Z,30.3085,-88.1395,64.32,1111122 
DISL,ioos:station:DISL:CATA:1,2017-09-03T18:00:00Z,30.3085,-88.1395,60.31,1111122 
DISL,ioos:station:DISL:CATA:1,2017-09-03T18:30:00Z,30.3085,-88.1395,54.21,1111122 
DISL,ioos:station:DISL:CATA:1,2017-09-03T19:00:00Z,30.3085,-88.1395,55.14,1111122 
DISL,ioos:station:DISL:CATA:1,2017-09-03T19:30:00Z,30.3085,-88.1395,52.6,1111122 
DISL,ioos:station:DISL:CATA:1,2017-09-03T20:00:00Z,30.3085,-88.1395,53.01,1111122 
DISL,ioos:station:DISL:CATA:1,2017-09-03T20:30:00Z,30.3085,-88.1395,51.06,1111122 
DISL,ioos:station:DISL:CATA:1,2017-09-03T21:00:00Z,30.3085,-88.1395,48.42,1111122 
DISL,ioos:station:DISL:CATA:1,2017-09-03T21:30:00Z,30.3085,-88.1395,44.83,1111122 
DISL,ioos:station:DISL:CATA:1,2017-09-03T22:00:00Z,30.3085,-88.1395,41.78,1111122 
DISL,ioos:station:DISL:CATA:1,2017-09-03T22:30:00Z,30.3085,-88.1395,47.71,1111122 
DISL,ioos:station:DISL:CATA:1,2017-09-03T23:00:00Z,30.3085,-88.1395,53.39,1111122 
DISL,ioos:station:DISL:CATA:1,2017-09-03T23:30:00Z,30.3085,-88.1395,57.23,1111122 
DISL,ioos:station:DISL:CATA:1,2017-09-04T00:00:00Z,30.3085,-88.1395,56.73,1111122 
DISL,ioos:station:DISL:CATA:1,2017-09-04T00:30:00Z,30.3085,-88.1395,57.86,1111122 
DISL,ioos:station:DISL:CATA:1,2017-09-04T01:00:00Z,30.3085,-88.1395,60.16,1111122 
DISL,ioos:station:DISL:CATA:1,2017-09-04T01:30:00Z,30.3085,-88.1395,62.52,1111122 
DISL,ioos:station:DISL:CATA:1,2017-09-04T02:00:00Z,30.3085,-88.1395,63.28,1111122 
DISL,ioos:station:DISL:CATA:1,2017-09-04T02:30:00Z,30.3085,-88.1395,62.49,1111122 
DISL,ioos:station:DISL:CATA:1,2017-09-04T03:00:00Z,30.3085,-88.1395,73.62,1111122 
DISL,ioos:station:DISL:CATA:1,2017-09-04T03:30:00Z,30.3085,-88.1395,71.88,1111122 
DISL,ioos:station:DISL:CATA:1,2017-09-04T04:00:00Z,30.3085,-88.1395,71.23,1111122 
DISL,ioos:station:DISL:CATA:1,2017-09-04T04:30:00Z,30.3085,-88.1395,67.23,1111122 
DISL,ioos:station:DISL:CATA:1,2017-09-04T05:00:00Z,30.3085,-88.1395,60.27,1111122 
DISL,ioos:station:DISL:CATA:1,2017-09-04T05:30:00Z,30.3085,-88.1395,65.03,1111122 
DISL,ioos:station:DISL:CATA:1,2017-09-04T06:30:00Z,30.3085,-88.1395,79.42,1111122 
DISL,ioos:station:DISL:CATA:1,2017-09-04T07:00:00Z,30.3085,-88.1395,72.6,1111122 
DISL,ioos:station:DISL:CATA:1,2017-09-04T07:30:00Z,30.3085,-88.1395,70.93,1111122 
DISL,ioos:station:DISL:CATA:1,2017-09-04T08:00:00Z,30.3085,-88.1395,70.75,1111122 
DISL,ioos:station:DISL:CATA:1,2017-09-04T08:30:00Z,30.3085,-88.1395,72.26,1111122 
DISL,ioos:station:DISL:CATA:1,2017-09-04T09:00:00Z,30.3085,-88.1395,79.9,1111122 
DISL,ioos:station:DISL:CATA:1,2017-09-04T09:30:00Z,30.3085,-88.1395,84.7,1111122 
DISL,ioos:station:DISL:CATA:1,2017-09-04T10:00:00Z,30.3085,-88.1395,84.6,1111122 
DISL,ioos:station:DISL:CATA:1,2017-09-04T10:30:00Z,30.3085,-88.1395,84.6,1111122 
DISL,ioos:station:DISL:CATA:1,2017-09-04T11:00:00Z,30.3085,-88.1395,86.1,1111122 
DISL,ioos:station:DISL:CATA:1,2017-09-04T11:30:00Z,30.3085,-88.1395,89.1,1111122 
DISL,ioos:station:DISL:CATA:1,2017-09-04T12:00:00Z,30.3085,-88.1395,90.8,1111122 
DISL,ioos:station:DISL:CATA:1,2017-09-04T12:30:00Z,30.3085,-88.1395,88.6,1111122 
DISL,ioos:station:DISL:CATA:1,2017-09-04T13:00:00Z,30.3085,-88.1395,85.4,1111122 
DISL,ioos:station:DISL:CATA:1,2017-09-04T13:30:00Z,30.3085,-88.1395,84.1,1111122 
DISL,ioos:station:DISL:CATA:1,2017-09-04T14:00:00Z,30.3085,-88.1395,83.1,1111122 
DISL,ioos:station:DISL:CATA:1,2017-09-04T14:30:00Z,30.3085,-88.1395,83.6,1111122 
DISL,ioos:station:DISL:CATA:1,2017-09-04T15:00:00Z,30.3085,-88.1395,79.68,1111122 
DISL,ioos:station:DISL:CATA:1,2017-09-04T15:30:00Z,30.3085,-88.1395,73.76,1111122 
DISL,ioos:station:DISL:CATA:1,2017-09-04T16:00:00Z,30.3085,-88.1395,76.15,1111122 
DISL,ioos:station:DISL:CATA:1,2017-09-04T16:30:00Z,30.3085,-88.1395,72.98,1111122 
DISL,ioos:station:DISL:CATA:1,2017-09-04T17:00:00Z,30.3085,-88.1395,69.93,1111122 
DISL,ioos:station:DISL:CATA:1,2017-09-04T17:30:00Z,30.3085,-88.1395,68.19,1111122 
DISL,ioos:station:DISL:CATA:1,2017-09-04T18:00:00Z,30.3085,-88.1395,64.04,1111122 
DISL,ioos:station:DISL:CATA:1,2017-09-04T18:30:00Z,30.3085,-88.1395,55.48,1111122 
DISL,ioos:station:DISL:CATA:1,2017-09-04T19:00:00Z,30.3085,-88.1395,59.32,1111122 
DISL,ioos:station:DISL:CATA:1,2017-09-04T19:30:00Z,30.3085,-88.1395,53.25,1111122 
DISL,ioos:station:DISL:CATA:1,2017-09-04T20:00:00Z,30.3085,-88.1395,59.66,1111122 
DISL,ioos:station:DISL:CATA:1,2017-09-04T20:30:00Z,30.3085,-88.1395,59.76,1111122 
DISL,ioos:station:DISL:CATA:1,2017-09-04T21:00:00Z,30.3085,-88.1395,58.8,1111122 
DISL,ioos:station:DISL:CATA:1,2017-09-04T21:30:00Z,30.3085,-88.1395,60.51,1111122 
DISL,ioos:station:DISL:CATA:1,2017-09-04T22:00:00Z,30.3085,-88.1395,57.67,1111122 
DISL,ioos:station:DISL:CATA:1,2017-09-04T22:30:00Z,30.3085,-88.1395,58.49,1111122 
DISL,ioos:station:DISL:CATA:1,2017-09-04T23:00:00Z,30.3085,-88.1395,63.15,1111122 
DISL,ioos:station:DISL:CATA:1,2017-09-04T23:30:00Z,30.3085,-88.1395,62.27,1111122 
DISL,ioos:station:DISL:CATA:1,2017-09-05T00:00:00Z,30.3085,-88.1395,65.16,1111122 
DISL,ioos:station:DISL:CATA:1,2017-09-05T00:30:00Z,30.3085,-88.1395,64.03,1111122 
DISL,ioos:station:DISL:CATA:1,2017-09-05T01:00:00Z,30.3085,-88.1395,67.42,1111122 
DISL,ioos:station:DISL:CATA:1,2017-09-05T01:30:00Z,30.3085,-88.1395,67.11,1111122 
DISL,ioos:station:DISL:CATA:1,2017-09-05T02:00:00Z,30.3085,-88.1395,68.65,1111122 
DISL,ioos:station:DISL:CATA:1,2017-09-05T02:30:00Z,30.3085,-88.1395,67.87,1111122 
DISL,ioos:station:DISL:CATA:1,2017-09-05T03:00:00Z,30.3085,-88.1395,65.43,1111122 
DISL,ioos:station:DISL:CATA:1,2017-09-05T03:30:00Z,30.3085,-88.1395,67.04,1111122 
DISL,ioos:station:DISL:CATA:1,2017-09-05T04:00:00Z,30.3085,-88.1395,65.95,1111122 
DISL,ioos:station:DISL:CATA:1,2017-09-05T04:30:00Z,30.3085,-88.1395,64.78,1111122 
DISL,ioos:station:DISL:CATA:1,2017-09-05T05:00:00Z,30.3085,-88.1395,63.38,1111122 
DISL,ioos:station:DISL:CATA:1,2017-09-05T05:30:00Z,30.3085,-88.1395,66.5,1111122 
DISL,ioos:station:DISL:CATA:1,2017-09-05T06:30:00Z,30.3085,-88.1395,66.84,1111122 
DISL,ioos:station:DISL:CATA:1,2017-09-05T07:00:00Z,30.3085,-88.1395,65.57,1111122 
DISL,ioos:station:DISL:CATA:1,2017-09-05T07:30:00Z,30.3085,-88.1395,65.23,1111122 
DISL,ioos:station:DISL:CATA:1,2017-09-05T08:00:00Z,30.3085,-88.1395,65.81,1111122 
DISL,ioos:station:DISL:CATA:1,2017-09-05T08:30:00Z,30.3085,-88.1395,65.47,1111122 
DISL,ioos:station:DISL:CATA:1,2017-09-05T09:00:00Z,30.3085,-88.1395,82.4,1111122 
DISL,ioos:station:DISL:CATA:1,2017-09-05T09:30:00Z,30.3085,-88.1395,81.5,1111122 
DISL,ioos:station:DISL:CATA:1,2017-09-05T10:00:00Z,30.3085,-88.1395,80.8,1111122 
DISL,ioos:station:DISL:CATA:1,2017-09-05T10:30:00Z,30.3085,-88.1395,83.3,1111122 
DISL,ioos:station:DISL:CATA:1,2017-09-05T11:00:00Z,30.3085,-88.1395,83.3,1111122 
DISL,ioos:station:DISL:CATA:1,2017-09-05T11:30:00Z,30.3085,-88.1395,82.9,1111122 
DISL,ioos:station:DISL:CATA:1,2017-09-05T12:00:00Z,30.3085,-88.1395,85.0,1111122 
DISL,ioos:station:DISL:CATA:1,2017-09-05T12:30:00Z,30.3085,-88.1395,82.9,1111122 
DISL,ioos:station:DISL:CATA:1,2017-09-05T13:00:00Z,30.3085,-88.1395,82.5,1111122 
DISL,ioos:station:DISL:CATA:1,2017-09-05T13:30:00Z,30.3085,-88.1395,80.2,1111122 
DISL,ioos:station:DISL:CATA:1,2017-09-05T14:00:00Z,30.3085,-88.1395,75.96,1111122 
DISL,ioos:station:DISL:CATA:1,2017-09-05T14:30:00Z,30.3085,-88.1395,75.61,1111122 
DISL,ioos:station:DISL:CATA:1,2017-09-05T15:00:00Z,30.3085,-88.1395,74.14,1111122 
DISL,ioos:station:DISL:CATA:1,2017-09-05T15:30:00Z,30.3085,-88.1395,73.93,1111122 
DISL,ioos:station:DISL:CATA:1,2017-09-05T16:00:00Z,30.3085,-88.1395,71.39,1111122 
DISL,ioos:station:DISL:CATA:1,2017-09-05T16:30:00Z,30.3085,-88.1395,64.01,1111122 
DISL,ioos:station:DISL:CATA:1,2017-09-05T17:00:00Z,30.3085,-88.1395,71.92,1111122 
DISL,ioos:station:DISL:CATA:1,2017-09-05T17:30:00Z,30.3085,-88.1395,69.08,1111122 
DISL,ioos:station:DISL:CATA:1,2017-09-05T18:00:00Z,30.3085,-88.1395,62.33,1111122 
DISL,ioos:station:DISL:CATA:1,2017-09-05T18:30:00Z,30.3085,-88.1395,56.95,1111122 
DISL,ioos:station:DISL:CATA:1,2017-09-05T19:00:00Z,30.3085,-88.1395,58.29,1111122 
DISL,ioos:station:DISL:CATA:1,2017-09-05T19:30:00Z,30.3085,-88.1395,58.46,1111122 
DISL,ioos:station:DISL:CATA:1,2017-09-05T20:00:00Z,30.3085,-88.1395,57.5,1111122 
DISL,ioos:station:DISL:CATA:1,2017-09-05T20:30:00Z,30.3085,-88.1395,54.62,1111122 
DISL,ioos:station:DISL:CATA:1,2017-09-05T21:00:00Z,30.3085,-88.1395,59.83,1111122 
DISL,ioos:station:DISL:CATA:1,2017-09-05T21:30:00Z,30.3085,-88.1395,56.75,1111122 
DISL,ioos:station:DISL:CATA:1,2017-09-05T22:00:00Z,30.3085,-88.1395,56.48,1111122 
DISL,ioos:station:DISL:CATA:1,2017-09-05T22:30:00Z,30.3085,-88.1395,60.74,1111122 
DISL,ioos:station:DISL:CATA:1,2017-09-05T23:00:00Z,30.3085,-88.1395,64.71,1111122 
DISL,ioos:station:DISL:CATA:1,2017-09-05T23:30:00Z,30.3085,-88.1395,65.5,1111122 
DISL,ioos:station:DISL:CATA:1,2017-09-06T00:00:00Z,30.3085,-88.1395,63.69,1111122 
DISL,ioos:station:DISL:CATA:1,2017-09-06T00:30:00Z,30.3085,-88.1395,66.7,1111122 
DISL,ioos:station:DISL:CATA:1,2017-09-06T01:00:00Z,30.3085,-88.1395,68.69,1111122 
DISL,ioos:station:DISL:CATA:1,2017-09-06T01:30:00Z,30.3085,-88.1395,70.95,1111122 
DISL,ioos:station:DISL:CATA:1,2017-09-06T02:00:00Z,30.3085,-88.1395,67.28,1111122 
DISL,ioos:station:DISL:CATA:1,2017-09-06T02:30:00Z,30.3085,-88.1395,70.06,1111122 
DISL,ioos:station:DISL:CATA:1,2017-09-06T03:00:00Z,30.3085,-88.1395,71.7,1111122 
DISL,ioos:station:DISL:CATA:1,2017-09-06T03:30:00Z,30.3085,-88.1395,70.57,1111122 
DISL,ioos:station:DISL:CATA:1,2017-09-06T04:00:00Z,30.3085,-88.1395,70.13,1111122 
DISL,ioos:station:DISL:CATA:1,2017-09-06T04:30:00Z,30.3085,-88.1395,74.68,1111122 
DISL,ioos:station:DISL:CATA:1,2017-09-06T05:00:00Z,30.3085,-88.1395,71.91,1111122 
DISL,ioos:station:DISL:CATA:1,2017-09-06T05:30:00Z,30.3085,-88.1395,68.04,1111122 
DISL,ioos:station:DISL:CATA:1,2017-09-06T06:30:00Z,30.3085,-88.1395,74.85,1111122 
DISL,ioos:station:DISL:CATA:1,2017-09-06T07:00:00Z,30.3085,-88.1395,89.8,1111122 
DISL,ioos:station:DISL:CATA:1,2017-09-06T07:30:00Z,30.3085,-88.1395,91.5,1111122 
DISL,ioos:station:DISL:CATA:1,2017-09-06T08:00:00Z,30.3085,-88.1395,88.7,1111122 
DISL,ioos:station:DISL:CATA:1,2017-09-06T08:30:00Z,30.3085,-88.1395,87.6,1111122 
DISL,ioos:station:DISL:CATA:1,2017-09-06T09:00:00Z,30.3085,-88.1395,77.93,1111122 
DISL,ioos:station:DISL:CATA:1,2017-09-06T09:30:00Z,30.3085,-88.1395,75.87,1111122 
DISL,ioos:station:DISL:CATA:1,2017-09-06T10:00:00Z,30.3085,-88.1395,85.6,1111122 
DISL,ioos:station:DISL:CATA:1,2017-09-06T10:30:00Z,30.3085,-88.1395,91.5,1111122 
DISL,ioos:station:DISL:CATA:1,2017-09-06T11:00:00Z,30.3085,-88.1395,92.0,1111122 
DISL,ioos:station:DISL:CATA:1,2017-09-06T11:30:00Z,30.3085,-88.1395,91.5,1111122 
DISL,ioos:station:DISL:CATA:1,2017-09-06T12:00:00Z,30.3085,-88.1395,92.0,1111122 
DISL,ioos:station:DISL:CATA:1,2017-09-06T12:30:00Z,30.3085,-88.1395,92.5,1111122 
DISL,ioos:station:DISL:CATA:1,2017-09-06T13:00:00Z,30.3085,-88.1395,92.5,1111122 
DISL,ioos:station:DISL:CATA:1,2017-09-06T13:30:00Z,30.3085,-88.1395,93.1,1111122 
DISL,ioos:station:DISL:CATA:1,2017-09-06T14:00:00Z,30.3085,-88.1395,89.4,1111122 
DISL,ioos:station:DISL:CATA:1,2017-09-06T14:30:00Z,30.3085,-88.1395,83.2,1111122 
DISL,ioos:station:DISL:CATA:1,2017-09-06T15:00:00Z,30.3085,-88.1395,81.4,1111122 
DISL,ioos:station:DISL:CATA:1,2017-09-06T15:30:00Z,30.3085,-88.1395,83.0,1111122 
DISL,ioos:station:DISL:CATA:1,2017-09-06T16:00:00Z,30.3085,-88.1395,80.2,1111122 
DISL,ioos:station:DISL:CATA:1,2017-09-06T16:30:00Z,30.3085,-88.1395,81.0,1111122 
DISL,ioos:station:DISL:CATA:1,2017-09-06T17:00:00Z,30.3085,-88.1395,81.6,1111122 
DISL,ioos:station:DISL:CATA:1,2017-09-06T17:30:00Z,30.3085,-88.1395,74.16,1111122 
DISL,ioos:station:DISL:CATA:1,2017-09-06T18:00:00Z,30.3085,-88.1395,69.11,1111122 
DISL,ioos:station:DISL:CATA:1,2017-09-06T18:30:00Z,30.3085,-88.1395,64.65,1111122 
DISL,ioos:station:DISL:CATA:1,2017-09-06T19:00:00Z,30.3085,-88.1395,59.2,1111122 
DISL,ioos:station:DISL:CATA:1,2017-09-06T19:30:00Z,30.3085,-88.1395,63.45,1111122 
DISL,ioos:station:DISL:CATA:1,2017-09-06T20:00:00Z,30.3085,-88.1395,63.59,1111122 
DISL,ioos:station:DISL:CATA:1,2017-09-06T20:30:00Z,30.3085,-88.1395,60.09,1111122 
DISL,ioos:station:DISL:CATA:1,2017-09-06T21:00:00Z,30.3085,-88.1395,60.06,1111122 
DISL,ioos:station:DISL:CATA:1,2017-09-06T21:30:00Z,30.3085,-88.1395,58.0,1111122 
DISL,ioos:station:DISL:CATA:1,2017-09-06T22:00:00Z,30.3085,-88.1395,61.26,1111122 
DISL,ioos:station:DISL:CATA:1,2017-09-06T22:30:00Z,30.3085,-88.1395,62.12,1111122 
DISL,ioos:station:DISL:CATA:1,2017-09-06T23:00:00Z,30.3085,-88.1395,58.28,1111122 
DISL,ioos:station:DISL:CATA:1,2017-09-06T23:30:00Z,30.3085,-88.1395,60.79,1111122 
DISL,ioos:station:DISL:CATA:1,2017-09-07T00:00:00Z,30.3085,-88.1395,61.41,1111122 
DISL,ioos:station:DISL:CATA:1,2017-09-07T00:30:00Z,30.3085,-88.1395,58.57,1111122 
DISL,ioos:station:DISL:CATA:1,2017-09-07T01:00:00Z,30.3085,-88.1395,60.45,1111122 
DISL,ioos:station:DISL:CATA:1,2017-09-07T01:30:00Z,30.3085,-88.1395,62.68,1111122 
DISL,ioos:station:DISL:CATA:1,2017-09-07T02:00:00Z,30.3085,-88.1395,63.74,1111122 
DISL,ioos:station:DISL:CATA:1,2017-09-07T02:30:00Z,30.3085,-88.1395,65.76,1111122 
DISL,ioos:station:DISL:CATA:1,2017-09-07T03:00:00Z,30.3085,-88.1395,70.36,1111122 